Regional Weather Roundup
Issued by NWS

Home | Current Version | Previous Version | Text Only | Print | Product List | Glossary Off
Versions: 1 2 3 4 5 6 7 8 9 10 11 12 13 14 15 16 17 18 19 20 21 22 23 24 25 26 27 28

000
ASUS45 KCYS 171610
RWRWY

WYOMING REGIONAL WEATHER ROUNDUP
NATIONAL WEATHER SERVICE CHEYENNE WY
900 AM MST SUN DEC 17 2017

NOTE:  "FAIR" INDICATES FEW OR NO CLOUDS BELOW 12,000 FEET
WITH NO SIGNIFICANT WEATHER AND/OR OBSTRUCTIONS TO VISIBILITY.

WYZ001-171700-
YELLOWSTONE NATIONAL PARK

CITY           SKY/WX    TMP DP  RH WIND       PRES   REMARKS
LK YELLOWSTONE   N/A      3   0  87 CALM      30.04S
W YELLOWSTONE  NOT AVBL

$$
WYZ002>013-054>058-071-098>099-171700-
NORTHERN WYOMING

CITY           SKY/WX    TMP DP  RH WIND       PRES   REMARKS
JACKSON        FLURRIES  12   9  87 NE3       30.09S
CODY           FAIR      29   9  43 W9G23     29.89S WCI  20
GREYBULL       CLOUDY    25  23  92 SE5       29.97S WCI  19
WORLAND        FOG       13  13 100 CALM      29.96S VSB 1
SHERIDAN       FOG       20  19  96 SW3       29.91S VSB 1/4
BUFFALO        FOG       20  16  84 CALM      29.86S VSB 1/4
GILLETTE       FAIR      24  21  88 S9        29.89F WCI  14
HULETT         CLOUDY    30  27  86 SW12G22   29.92S WCI  21
NEWCASTLE      CLOUDY    27  27 100 SE8       29.98F WCI  18

$$
WYZ014>020-022>026-101>103-171700-
CENTRAL WYOMING

CITY           SKY/WX    TMP DP  RH WIND       PRES   REMARKS
BIG PINEY      FAIR      16  10  77 CALM      30.04S
PINEDALE       FAIR      16   9  73 CALM      30.04R
DUBOIS         FAIR      19   9  63 NW18G25   29.93R WCI   4
LANDER         FAIR      16  14  92 SE3       29.92F
RIVERTON       FAIR      17  16  95 SW9       29.93F WCI   6
CASPER         FAIR      22  18  85 W13       29.93F WCI  10
DOUGLAS        FAIR      28  24  85 S3        29.95F

$$
WYZ021-027>030-104>119-171700-
SOUTHERN WYOMING

CITY           SKY/WX    TMP DP  RH WIND       PRES   REMARKS
EVANSTON       FAIR      17  15  92 SW6       30.10R WCI   9
FORT BRIDGER   FAIR      21  18  90 W17G23    30.11R WCI   6
ROCK SPRINGS   CLOUDY    19  13  77 W21G28    30.04R WCI   3
DIXON          CLOUDY    25  20  80 CALM      30.07S
RAWLINS        CLOUDY    25  21  85 SW17      29.98S WCI  12
SARATOGA       CLOUDY    27  21  80 W14       30.01R WCI  15
LARAMIE        FOG       16  14  92 SE6       29.95R VSB 1/4 WCI   7
CHEYENNE       FAIR      26  24  92 SW7       29.97S WCI  18
TORRINGTON     CLOUDY    29  29 100 SW7       30.01R WCI  22
PINE BLUFFS    CLOUDY    28  28 100 MISG      30.01S

$$




USA.gov is the U.S. government's official web portal to all federal, state and local government web resources and services.